Location: *
(50.9167°S, 179.4000°W)
Time: 20:37:58
(UTC+00:00)

Cosmos 1536 Rocket - Pass Details

Date: 03 March 2024
Orbit: 602 x 630 km, 82.5° (Epoch: 16 April)

Event Time Altitude Azimuth Distance (km) Brightness Sun altitude
Exits shadow 15:48:17 26° 326° (NNW) 1,218 4.5 -15.9°
Maximum altitude 15:50:34 58° 256° (WSW) 731 3.7 -15.6°
Drops below altitude 10° 15:54:59 10° 176° (S) 2,018 6.7 -15.0°
Sets 15:57:17 0° 172° (S) 2,937 7.6 -14.7°
